www.pogodaiklimat.ru

Погода и климат >> Архив погоды >> Португалия >> Пико


ПОГОДА в Пико

  • Прогноз погоды в Пико
  • Монитор погоды в Пико

АРХИВ ПОГОДЫ в Пико

Время (UTC), дата Ветер
(напр.,м/с)
 
Видим.   Явления Облачность Т
(С)
Тd
(С)
f
(%)
Тe
(С)
Тes
(С)
Комфортность P
(гПа)
Po
(гПа)
Тmin
(С)
Tmax
(С)
R
(мм)
R24
(мм)
S
(см)
06 14.05 ЮЗ 2
{3}
н/о н/о +13.9 +11.8 87 +14 +14 1019.5 1015.5 +13.7 2
12 14.05 СЗ 2-3
{3}
н/о н/о +17.5 +12.2 71 +18 +18 1022.3 1018.4 0.3
15 14.05 С 2-3
{4}
н/о н/о +18.5 +12.7 69 +20 +20 1022.2 1018.3
18 14.05 СЗ 2
{3}
н/о н/о +18.8 +11.9 64 +20 +20 1022.1 1018.2 +19.4 0.3
03 15.05 С 1
{3}
н/о н/о +16.5 +13.4 82 +17 +17 1021.3 1017.4
06 15.05 З 3-6
{7}
н/о н/о +18.0 +14.9 82 +18 +18 1020.4 1016.4 +15.8
09 15.05 З 3-6
{6}
н/о н/о +18.3 +16.5 89 +19 +19 1021.1 1017.2
12 15.05 З 3-5
{6}
н/о н/о +18.9 +17.0 89 +20 +20 1021.7 1017.8
15 15.05 З 3-5
{6}
н/о н/о +18.6 +17.3 92 +20 +20 1021.3 1017.4
18 15.05 СЗ 2-5
{5}
н/о н/о +18.0 +14.8 82 +19 +19 1022.1 1018.1 +20.7
21 15.05 С 1
{3}
н/о н/о +16.2 +13.9 86 +17 +17 1023.6 1019.6
03 16.05 С 1-3
{3}
н/о н/о +14.6 +14.2 97 +15 +15 1024.5 1020.5
06 16.05 В 2-3
{3}
н/о н/о +14.5 +13.8 96 +14 +14 1024.3 1020.3 +14.2 4
09 16.05 В 2
{4}
н/о н/о +14.9 +14.2 96 +15 +15 1025.7 1021.7
12 16.05 СВ 2
{3}
н/о н/о +17.8 +14.2 79 +18 +18 1026.2 1022.2 0.4
15 16.05 СВ 2
{4}
н/о н/о +19.0 +14.7 76 +21 +21 комфорт 1025.8 1021.9
18 16.05 СВ 2-3
{4}
н/о н/о +18.9 +14.1 74 +20 +20 1025.1 1021.1 +19.6 0.4
21 16.05 В 2
{3}
н/о н/о +16.8 +13.8 82 +17 +17 1025.6 1021.7
06 17.05 Ю 1 н/о н/о +13.1 +11.7 91 +14 +14 1024.9 1020.9 +13.1
18 17.05 С 1 н/о н/о +18.7 +12.9 69 +21 +21 комфорт 1025.1 1021.1 +19.8
06 18.05 С 1 н/о н/о +16.1 +13.8 86 +17 +17 1023.4 1019.5 +14.8
12 18.05 С 2
{3}
н/о н/о +18.5 +15.7 84 +20 +20 1024.6 1020.7 0.1
18 18.05 С 1
{3}
н/о н/о +20.7 +14.3 67 +25 +25 комфорт 1023.9 1020.0 +20.8 0.1
03 19.05 ЮЗ 1
{3}
н/о н/о +15.8 +12.6 81 +16 +16 1023.2 1019.2
06 19.05 С 1
{3}
н/о н/о +15.9 +12.9 82 +17 +17 1022.3 1018.4 +15.1
09 19.05 З 2-4
{5}
н/о н/о +18.1 +13.5 74 +19 +19 1023.2 1019.3
12 19.05 З 4-6
{7}
н/о н/о +20.5 +13.9 66 +23 +23 комфорт 1022.8 1018.9
15 19.05 З 4-6
{6}
н/о н/о +20.6 +13.5 64 +23 +23 комфорт 1022.0 1018.1
18 19.05 З 4-6
{7}
н/о н/о +20.5 +13.0 62 +23 +23 комфорт 1020.4 1016.5 +21.7
21 19.05 З 2-4
{5}
н/о н/о +18.4 +13.5 73 +19 +19 1020.4 1016.4
00 20.05 С 2-4
{4}
н/о н/о +17.9 +14.4 80 +19 +19 1020.1 1016.2
03 20.05 З 2-4
{5}
н/о н/о +17.7 +15.0 84 +18 +18 1018.6 1014.7
06 20.05 З 2-5
{5}
н/о н/о +18.2 +14.8 81 +19 +19 1017.0 1013.1 +17.6
09 20.05 ЮЗ 2-5
{5}
н/о н/о +19.9 +14.3 70 +23 +23 комфорт 1017.2 1013.3
12 20.05 ЮЗ 3-6
{6}
н/о н/о +22.1 +15.0 64 +26 +26 душно 1016.9 1013.1
15 20.05 З 4-7
{7}
н/о н/о +22.8 +15.1 62 +27 +27 душно 1015.7 1011.9
18 20.05 ЮЗ 4-7
{9}
н/о н/о +21.3 +16.2 73 +25 +25 комфорт 1013.7 1009.9 +23.9
21 20.05 З 4-8
{9}
н/о н/о +19.9 +16.7 82 +22 +22 комфорт 1013.1 1009.2
00 21.05 З 4-7
{9}
н/о н/о +19.4 +17.0 86 +21 +21 комфорт 1012.7 1008.8

 

Местоположение метеостанции Пико (Португалия): широта 38.55 долгота -28.44 высота над уровнем моря 33 м.

В архиве по умолчанию представлена погода в Пико за последнюю неделю. Архивные данные за месяц целиком и за предыдущие месяцы, начиная с января 2011 года, Вы можете получить, выбрав интересующий диапазон дат из раскрывающегося списка и нажав кнопку "Ввод!".


*Определитесь, кто Вы:
робот инопланетянин человек

Внимание! Время в таблицах - всемирное. Для получения местного времени необходимо прибавить поправку, которая равна 1 ч.

Смотрите также архив погоды в соседних городах и на ближайших метеорологических станциях:

Погода в Орте (Португалия) (17 км)
Погода в Каштелу-Бранку (Португалия) (24 км)
Погода в Сан-Жоржи (Португалия) (26 км)
Погода на Острове Грасьоса (Португалия) (69 км)
Погода в Ангра-ду-Эроижму (Португалия) (108 км)
Погода в Аэропорту Лажеша (Португалия) (119 км)
Погода на Флошише (Португалия) (253 км)
Погода в Понта-Делгаде (Португалия) (256 км)
Погода в Санта-Марии (Португалия) (338 км)
Погода в Фуншале (Португалия) (1233 км)

Пояснения к столбцам:

Ветер - указаны скорость ветра в м/с - средняя за 10 мин, порывы в срок и между сроками (в фигурных скобках) и направление, откуда дует ветер: С - северный, СВ - северо-восточный, В - восточный, ЮВ - юго-восточный, Ю - южный, ЮЗ - юго-западный, З - западный, СЗ - северо-западный.
Видимость - горизонтальная дальность видимости в метрах или километрах. При видимости от 1 до 10 км при отсутствии осадков обычно наблюдается дымка, при ухудшении видимости до 1 км и менее - туман. В сухую погоду видимость может ухудшаться дымом, пылью или мглою.
Явления - указаны атмосферные явления, наблюдавшиеся в срок или в последний час перед сроком; фигурными скобками обозначены явления, наблюдавшиеся между сроками (за 1-3 часа до срока); квадратными скобками обозначены град или гололедные отложения с указанием их диаметра в мм.
Облачность - указаны через наклонную черту общая и нижняя облачность в баллах и высота нижней границы облаков в метрах; квадратными скобками обозначены формы облаков: Ci - перистые, Cs - перисто-слоистые, Cc - перисто-кучевые, Ac - высококучевые, As - высокослоистые, Sc - слоисто-кучевые, Ns - слоисто-дождевые, Cu - кучевые, Cb - кучево-дождевые. Подробнее классификацию облаков см. в Атласе облаков (PDF).
T - Температура воздуха - температура, измеренная на высоте 2 м над землей.
Td - Температура точки росы - температура, при понижении до которой содержащийся в воздухе водяной пар достигнет насыщения.
f - Относительная влажность воздуха - влажноcть воздуха, измеренная на высоте 2 м над землей.
Te - Эффективная температура - температура, которую ощущает одетый по сезону человек в тени. Характеристика душности погоды. При расчете учитывается влияние влажности воздуха и скорости ветра на теплоощущения человека.
Tes - Эффективная температура на солнце - температура, которую ощущает человек, с поправкой на солнечный нагрев. Характеристика знойности погоды. Зависит от высоты солнца над горизонтом, облачности и скорости ветра. Ночью, в пасмурную погоду, а также при ветре 12 м/с и более поправка равна нулю.
P - Атмосферное давление - приведенное к уровню моря атмосферное давление.
Po - Атмосферное давление - измеренное на уровне метеостанции атмосферное давление.
Tmin - Минимальная температура - минимум температуры воздуха на высоте 2 м над землей.
Tmax - Максимальная температура - максимум температуры воздуха на высоте 2 м над землей.
R - Количество осадков - Количество выпавших осадков за период времени, мм. При наведении курсора мыши на число - период времени, за который выпало указанное количество осадков.
R24 - Количество осадков - Количество выпавших осадков за 24 часа, мм.
S - Снежный покров - Высота снежного покрова, см. При наведении курсора мыши на число - состояние снежного покрова и степень покрытия местности в баллах.